Vorticity
nan nan nan nan nan nan nan nan nan nan nan nan nan nan nan nan nan nan nan nan nan nan nan nan nan nan nan nan nan nan nan nan nan nan nan nan nan nan nan nan nan nan nan nan nan nan nan nan nan
nan 5 4 7 9 7 5 9 17 13 8 1 1 1 7 6 8 11 6 10 8 7 7 7 5 5 5 4 4 5 4 4 4 4 5 4 5 5 4 4 4 5 5 5 5 6 5 5 nan
nan 5 8 6 7 6 10 12 5 2 0 8 3 8 3 3 9 7 12 12 6 6 7 7 5 5 6 5 5 5 5 4 5 5 5 5 5 4 4 4 5 6 6 6 6 6 5 5 nan
nan 7 8 8 6 5 12 11 -4 -5 1 4 4 8 3 16 16 8 11 7 5 5 6 5 5 7 6 6 6 5 5 5 5 5 5 5 5 5 4 4 5 6 7 6 5 4 4 5 nan
nan 8 6 8 7 10 15 9 -1 1 6 9 10 2 4 12 15 12 8 7 5 6 8 6 5 7 6 6 6 5 5 6 5 5 5 5 5 5 4 5 5 4 4 4 4 3 4 4 nan
nan 7 7 7 9 9 12 9 10 10 4 4 12 6 8 12 9 6 6 6 5 6 7 5 5 6 7 6 5 5 6 5 6 6 6 5 4 5 5 5 5 5 4 3 3 3 4 5 nan
nan 8 8 6 10 12 10 8 9 7 2 7 5 4 8 8 10 7 6 6 6 6 6 6 6 4 4 5 6 6 5 6 6 6 6 5 5 5 4 4 5 4 4 4 4 4 4 4 nan
nan 8 7 6 5 6 11 8 0 7 14 9 7 9 9 12 10 7 6 5 5 6 6 6 6 6 5 5 5 6 6 6 6 5 6 5 4 3 3 4 3 4 5 4 4 5 4 5 nan
nan 7 8 7 1 -3 -2 8 12 7 6 3 11 15 19 13 4 4 3 4 5 6 6 7 7 6 6 6 7 7 6 5 5 4 4 4 4 5 3 4 4 5 6 7 7 7 6 7 nan
nan 8 8 7 5 -0 8 12 2 8 3 2 8 17 14 8 6 3 2 5 5 3 5 6 6 7 7 7 7 5 5 5 6 6 4 5 5 5 5 4 6 7 7 8 7 7 8 7 nan
nan 7 9 12 16 8 5 5 8 10 5 7 11 10 5 6 5 5 4 5 5 4 5 8 6 7 6 7 7 7 7 7 6 7 6 6 6 7 7 7 7 6 6 8 6 6 7 8 nan
nan 8 7 10 13 10 11 5 7 3 8 19 21 7 4 5 5 6 7 6 5 6 6 6 7 7 7 8 8 8 7 7 7 6 8 8 9 9 8 7 7 8 7 7 8 7 7 7 nan
nan 10 9 8 10 11 7 5 9 3 10 21 13 7 6 5 4 4 7 8 8 8 8 7 7 8 8 9 10 7 7 7 8 9 9 10 9 8 8 8 7 7 7 7 7 7 7 7 nan
nan 9 8 13 6 8 5 6 7 9 11 12 9 6 5 6 5 4 6 9 9 7 9 9 9 8 9 9 8 7 6 8 11 11 9 10 10 8 7 7 7 7 7 8 8 8 7 6 nan
nan 8 7 7 9 9 5 1 5 14 16 8 6 8 8 9 8 9 8 11 10 10 10 8 8 9 8 8 6 6 5 7 10 10 9 11 10 9 8 7 7 8 9 8 7 7 6 6 nan
nan 7 6 7 9 8 11 3 -2 14 20 10 8 9 6 6 9 13 16 12 11 11 9 9 9 7 6 4 5 5 9 10 9 9 9 8 8 7 6 8 9 9 8 8 7 6 7 7 nan
nan 12 6 5 9 13 9 7 3 16 15 8 9 9 8 5 5 8 16 16 13 10 8 7 5 5 6 5 7 7 9 10 8 7 8 8 9 9 9 9 7 7 7 7 8 7 7 7 nan
nan 6 9 5 3 11 11 7 9 17 14 7 6 7 7 6 5 10 12 13 12 9 8 5 5 4 4 7 9 8 7 6 7 8 10 10 10 10 8 7 8 7 7 7 7 6 8 8 nan
nan 9 7 8 10 5 6 7 10 14 10 7 8 7 6 7 9 11 10 9 8 7 5 2 6 9 7 7 7 6 6 7 7 7 9 9 9 8 8 8 8 6 5 7 8 9 7 8 nan
nan 9 6 9 10 9 5 3 7 10 11 12 11 9 9 8 10 10 9 9 7 6 5 7 8 8 6 5 6 9 9 8 7 6 6 7 9 10 8 5 3 6 9 9 8 9 9 8 nan
nan 9 9 9 6 7 6 0 4 8 11 12 12 13 12 10 8 7 8 8 8 10 9 9 11 10 7 6 8 10 9 8 6 6 7 8 7 4 4 5 7 9 10 8 7 8 9 10 nan
nan 10 14 6 6 5 8 7 8 8 6 8 10 9 9 8 6 8 9 9 8 8 10 9 7 7 9 11 10 10 11 9 8 9 6 5 6 4 3 5 9 10 10 8 7 7 7 8 nan
nan 11 8 5 10 8 9 8 10 9 8 8 5 4 7 8 8 8 6 6 8 7 7 8 9 9 11 13 11 9 10 10 8 7 7 6 7 5 5 9 10 7 7 6 7 6 6 7 nan
nan 3 7 9 8 7 8 11 10 10 10 6 4 7 8 7 6 5 7 7 8 8 10 9 9 8 8 7 7 9 8 8 7 8 8 8 8 9 9 8 9 8 7 6 6 7 6 6 nan
nan 6 7 7 9 8 9 9 13 14 13 12 7 7 6 5 6 7 7 7 7 9 9 8 6 6 6 6 6 6 7 6 7 8 8 9 10 8 10 13 10 7 7 7 6 7 7 7 nan
nan 11 11 11 7 9 10 9 7 17 20 12 9 8 6 6 7 7 7 8 8 8 7 8 7 6 6 6 6 6 8 9 9 8 9 10 9 9 12 14 10 6 5 6 7 8 8 8 nan
nan 10 10 9 9 9 8 10 7 12 15 13 11 8 7 7 7 7 9 9 7 7 7 7 5 5 6 6 7 8 8 9 8 9 11 10 9 10 13 12 6 6 8 6 6 8 9 9 nan
nan 10 7 9 11 8 8 10 14 11 12 8 7 7 7 7 8 9 8 6 6 7 7 8 7 6 6 7 8 9 8 7 7 8 8 8 9 10 12 11 8 9 7 6 8 10 11 9 nan
nan 5 9 11 10 11 9 11 16 14 13 9 6 9 9 8 8 8 6 6 8 8 7 6 8 9 8 8 7 6 6 8 8 7 7 7 7 9 11 13 13 12 8 5 10 12 10 9 nan
nan nan nan nan nan nan nan nan nan nan nan nan nan nan nan nan nan nan nan nan nan nan nan nan nan nan nan nan nan nan nan nan nan nan nan nan nan nan nan nan nan nan nan nan nan nan nan nan nan
CAPE
0 0 0 0 0 0 0 0 0 15 149 110 146 122 85 150 153 176 407 438 763 997 1019 611 720 1026 951 985 1102 1070 908 649 566 431 370 286 179 119 122 231 231 84 0 0 0 0 0 0 0
0 0 0 0 0 0 0 6 178 195 47 7 13 19 13 7 403 549 551 680 741 1012 1015 649 726 1067 1078 1193 1230 1136 887 693 546 422 334 175 83 70 49 50 136 47 0 0 0 0 0 0 0
0 0 0 0 0 0 0 124 170 38 15 0 0 10 94 5 301 515 793 762 821 980 927 747 805 1064 1223 1305 1279 1154 1019 876 691 538 250 92 14 18 17 41 49 14 0 0 0 0 0 0 0
0 0 0 0 0 0 0 155 116 78 42 3 2 6 97 330 458 565 818 799 875 927 972 763 959 1128 1352 1394 1375 1202 1034 845 712 600 330 28 0 0 0 36 44 1 0 0 0 0 0 0 0
0 0 0 0 0 0 0 211 93 70 54 10 3 0 305 601 836 923 699 791 829 983 1039 1058 960 1019 1310 1507 1376 1139 943 817 769 678 484 184 0 0 0 52 49 0 0 0 0 0 0 2 13
0 0 0 0 0 0 11 95 102 68 49 46 46 215 393 941 970 826 737 832 880 933 1149 1240 933 1123 1261 1321 1150 834 840 817 792 704 552 212 98 107 6 0 5 0 0 0 0 0 0 12 13
0 0 0 0 0 6 20 121 115 101 75 93 62 294 707 986 914 970 834 886 904 970 1133 1131 1177 1086 985 990 844 652 740 716 669 623 539 372 190 147 120 95 12 0 115 76 39 15 40 39 30
0 0 0 0 6 14 0 0 3 35 50 10 111 480 541 671 951 1000 905 892 1035 993 787 758 1008 1000 1084 1034 685 587 560 541 520 516 330 126 63 78 77 0 85 103 76 78 114 165 113 44 14
0 0 0 0 38 30 19 2 0 6 52 8 0 470 588 680 724 690 676 635 692 695 626 575 692 869 785 745 638 451 497 461 435 412 119 32 80 118 125 28 75 137 161 139 113 72 48 0 0
0 0 0 0 90 70 6 0 0 102 71 10 269 564 796 674 612 662 719 667 613 621 458 518 672 563 351 284 448 365 294 285 345 345 361 155 169 142 88 64 21 29 0 0 0 0 0 0 0
0 0 0 0 11 84 24 6 46 122 125 58 309 409 472 576 525 714 546 708 627 484 719 526 428 240 150 137 204 96 153 194 242 319 326 318 293 344 356 253 12 0 0 0 0 0 0 0 0
0 0 0 0 0 4 1 0 145 199 133 29 437 958 601 649 584 575 658 661 476 552 523 243 110 56 2 2 28 32 110 203 363 483 536 540 351 185 163 0 0 0 0 0 0 0 0 0 0
0 0 0 0 0 0 0 0 186 80 23 190 671 1074 1126 877 696 525 343 197 198 167 110 63 0 0 0 1 29 45 116 292 410 444 247 126 5 4 0 0 0 0 0 0 0 0 0 0 0
0 0 0 0 0 0 0 0 0 0 3 423 658 904 809 535 351 154 1 0 1 0 51 35 0 0 1 14 4 13 44 61 115 91 29 7 0 0 0 0 0 0 0 0 0 0 0 0 0
0 0 0 0 0 0 0 0 0 0 25 303 533 277 268 191 50 10 0 0 3 48 63 47 6 2 0 0 0 0 0 0 0 0 0 0 0 0 0 0 0 0 0 0 0 0 0 0 0
0 0 0 0 0 0 0 0 0 0 0 17 81 23 63 2 0 0 0 0 127 212 254 30 0 0 0 1 0 2 0 0 0 0 0 0 0 0 0 0 0 0 0 0 0 0 0 0 0
0 0 0 0 0 0 0 0 0 0 14 0 0 0 8 85 86 7 5 5 276 296 74 13 25 32 5 0 0 0 0 0 0 0 0 0 0 0 0 0 0 0 0 0 0 0 0 0 0
0 0 0 0 0 0 0 0 0 0 9 3 0 0 13 31 7 0 0 9 128 174 20 26 13 1 1 0 0 0 0 0 0 0 0 0 0 0 0 0 0 0 0 0 0 0 0 0 0
0 0 0 0 0 0 0 0 0 0 0 0 0 0 0 0 2 3 8 148 166 68 45 29 3 1 0 0 0 0 0 0 0 0 0 0 0 0 0 0 0 0 0 0 0 0 0 0 0
0 0 0 0 0 0 0 0 0 0 0 0 0 0 0 1 3 1 1 56 159 173 104 16 2 0 0 0 0 0 0 0 0 0 0 0 0 0 0 0 0 0 0 0 0 0 0 0 0
0 0 0 0 0 0 0 0 0 0 0 0 0 0 2 0 1 2 0 2 0 0 3 0 0 0 0 0 0 0 0 0 0 0 0 0 0 0 0 0 0 0 0 0 0 0 0 0 0
0 0 0 0 0 2 0 0 0 0 0 0 0 0 0 5 7 0 0 0 0 0 0 0 0 0 0 0 0 0 0 0 0 0 0 0 0 0 0 0 0 0 0 0 0 0 0 0 0
0 0 0 0 0 0 0 0 0 0 0 0 0 0 0 0 0 0 0 0 0 0 0 0 0 0 0 0 0 0 0 0 0 0 0 0 0 0 0 0 0 0 0 0 0 0 0 0 0
0 0 0 0 0 0 0 0 0 0 0 0 0 0 0 0 0 0 0 0 0 0 0 0 0 0 0 0 0 0 0 0 0 0 0 0 0 0 0 0 0 0 0 0 0 0 0 0 0
0 0 0 5 0 0 0 0 0 0 0 0 0 0 0 0 0 0 0 0 0 0 0 0 0 0 0 0 0 0 0 0 0 0 0 0 0 0 0 0 0 0 0 0 0 0 0 0 0
0 0 10 0 0 0 0 0 0 0 0 0 0 0 0 0 0 0 0 0 0 0 0 0 0 0 0 0 0 0 0 0 0 0 0 0 0 0 0 0 0 0 0 0 0 0 8 17 28
0 0 0 0 0 0 0 0 0 0 0 0 0 0 0 0 0 0 0 0 0 0 0 0 0 0 0 0 0 0 0 0 0 0 0 0 0 0 0 0 0 0 0 0 1 3 41 42 30
0 0 0 0 0 0 0 0 0 0 0 0 0 0 0 0 0 0 0 0 0 0 0 0 0 0 0 0 0 0 0 0 0 0 0 0 0 0 0 0 2 6 2 5 5 7 20 17 13
0 0 0 0 0 0 0 0 0 0 0 0 0 0 0 0 0 0 0 0 0 0 0 0 0 0 0 0 0 0 0 0 0 0 0 0 0 0 0 0 0 2 4 0 17 0 0 0 1
0 0 0 0 0 0 0 0 0 0 0 0 0 0 0 0 0 0 0 0 0 0 0 0 0 0 0 0 0 0 0 0 0 0 0 0 0 0 0 0 0 5 0 36 0 0 0 0 0